Theta_e
363 363 363 363 362 360 360 358 358 358 358 359 359 359 360 360 359 358 356 357 356 354 354 353 353 354 354 355 355 356 357 355 357 357 356 357 358 359 358 355 354 352
360 362 362 364 363 361 361 359 358 358 358 357 358 359 360 360 360 359 357 358 357 355 353 353 353 352 354 356 356 357 359 357 357 357 355 357 358 358 358 356 354 353
356 358 361 363 363 362 361 360 360 359 358 357 358 360 360 360 360 358 357 358 359 356 354 353 353 352 353 356 357 358 360 359 359 358 357 357 357 357 357 356 356 354
354 354 356 359 362 362 361 361 360 360 360 359 359 360 361 360 360 359 359 359 360 359 357 355 353 352 354 356 357 358 359 360 360 359 358 356 356 356 357 356 356 355
354 353 353 355 358 363 362 362 362 361 361 360 359 360 361 361 360 360 360 361 361 361 359 358 356 354 355 357 358 359 359 360 360 360 359 359 357 356 356 355 356 355
357 357 357 357 360 362 363 363 362 362 361 359 359 359 360 361 360 359 360 360 361 361 359 359 357 355 356 358 359 360 360 359 359 360 361 360 359 358 357 356 355 355
360 361 361 362 362 363 364 363 362 362 361 359 358 359 360 360 360 359 359 359 359 360 359 358 356 356 355 358 359 361 361 360 359 360 360 360 360 359 359 357 355 355
360 360 361 361 362 363 365 364 363 362 361 360 359 360 361 360 359 359 358 358 358 359 359 358 357 357 356 358 360 361 362 361 359 359 360 361 361 361 361 359 358 355
359 360 360 361 360 361 363 364 363 361 359 358 359 360 361 360 358 358 358 358 358 358 359 359 359 358 358 357 359 360 361 361 360 360 361 361 361 362 362 360 360 358
357 358 359 359 360 361 360 361 361 361 358 357 357 357 358 358 357 357 355 355 356 357 358 357 357 358 358 358 359 360 361 361 361 361 360 360 359 361 362 363 362 360
355 356 357 358 360 360 359 358 358 360 361 360 358 357 359 359 358 357 355 353 355 356 357 357 356 357 358 359 359 359 360 362 363 362 360 359 359 360 361 363 362 361
355 355 356 357 358 358 356 356 357 358 359 360 359 358 359 360 359 357 355 355 355 356 358 357 357 357 359 360 359 357 360 363 363 362 361 360 358 358 360 361 361 360
354 354 355 356 357 357 353 353 357 359 359 360 359 358 359 361 360 357 356 356 355 356 357 357 357 358 359 360 359 359 360 362 362 361 362 361 358 356 357 359 360 360
353 353 354 355 358 358 354 354 357 360 360 360 359 357 358 360 359 357 356 357 357 357 357 358 359 359 358 358 359 360 362 362 361 361 361 360 358 357 356 357 358 360
352 352 352 354 356 356 356 357 358 360 360 359 359 359 358 359 358 356 356 357 356 357 357 357 357 357 359 360 361 361 363 363 360 359 360 358 358 359 357 356 358 359
352 351 351 352 353 353 354 356 356 356 356 354 357 360 359 358 356 355 356 355 356 356 356 356 355 356 360 363 362 363 364 365 362 360 359 357 358 360 359 358 358 359
352 352 351 351 351 352 353 354 353 353 352 350 353 358 359 358 356 355 355 354 355 356 356 356 355 356 361 364 363 363 363 364 363 361 360 359 359 359 358 358 359 359
352 353 352 351 352 353 354 353 351 350 350 351 353 356 358 358 356 355 355 354 354 354 355 356 355 357 361 363 362 360 360 362 362 360 359 358 359 359 358 358 360 359
352 352 350 350 352 353 353 353 352 350 350 351 354 356 358 357 354 355 356 355 355 355 355 356 356 357 360 362 361 358 358 361 362 360 359 358 359 359 359 359 360 359
349 348 348 350 352 352 352 352 352 352 352 352 354 356 357 357 354 354 356 356 356 356 355 356 357 359 361 361 360 358 357 360 361 360 359 359 359 359 359 359 359 357
347 345 344 345 348 350 351 352 353 354 353 353 353 354 356 357 355 354 356 356 357 357 356 357 357 359 360 360 360 358 357 360 361 360 359 359 358 359 359 358 358 357
346 344 342 341 342 345 347 350 352 354 353 353 352 350 353 355 354 355 356 356 357 357 357 357 357 357 358 360 360 359 358 359 360 360 359 359 358 358 358 358 357 356
345 344 343 341 340 341 342 346 350 352 352 353 352 351 352 354 355 356 356 355 355 358 358 358 358 358 359 359 359 360 360 359 358 359 359 358 357 356 355 355 355 354
346 345 345 343 342 342 342 344 347 351 352 353 353 351 351 353 353 354 354 354 354 356 357 356 358 359 359 360 359 359 360 357 357 358 359 356 354 352 352 352 353 353
344 344 344 344 344 345 345 345 346 349 351 352 352 352 351 351 352 353 353 354 354 354 354 355 356 358 358 359 358 358 359 357 355 356 356 352 350 349 350 352 352 352
345 345 345 344 344 345 347 347 345 346 350 351 351 353 352 352 353 353 352 353 353 353 353 353 354 355 356 357 357 358 358 356 353 354 352 349 348 349 349 350 349 349
Wind_Speed
25 27 29 31 33 36 37 32 29 29 30 28 25 24 26 25 23 24 25 27 30 30 30 32 31 28 26 26 27 25 24 23 20 19 19 20 20 19 19 19 18 17
24 27 29 31 33 35 36 33 33 35 36 35 30 26 25 25 25 26 26 27 29 31 31 32 35 33 28 26 26 25 24 24 22 19 19 20 20 19 19 19 18 18
23 25 27 31 32 32 34 36 36 36 35 33 31 28 27 27 27 28 28 27 27 30 31 32 34 35 31 27 26 26 24 23 23 20 18 19 20 20 19 18 18 18
22 24 25 28 29 30 32 36 37 38 36 35 32 29 29 28 27 27 29 29 27 27 29 31 33 34 32 29 27 27 25 23 23 22 21 20 19 20 19 18 18 17
21 23 24 23 23 27 31 34 37 40 40 39 35 30 29 30 30 29 29 30 30 27 26 27 30 32 32 29 28 27 26 24 23 23 23 22 20 19 18 18 18 18
21 23 25 24 21 22 28 33 35 38 40 39 35 31 30 31 32 32 30 29 29 29 28 27 28 30 32 30 29 28 27 25 22 22 24 24 21 19 18 17 18 18
21 23 23 24 22 21 24 30 32 33 36 36 33 31 31 33 35 34 32 31 30 29 29 29 29 30 31 30 29 29 28 27 24 22 23 24 23 21 19 18 17 18
22 23 23 23 24 22 23 26 29 30 33 33 31 31 32 34 36 35 33 32 31 29 29 30 31 31 29 28 29 30 29 27 25 24 22 22 23 22 21 20 18 16
23 24 24 24 24 24 23 23 26 29 29 29 29 31 31 33 34 35 34 32 31 31 30 30 31 32 31 28 28 29 30 28 26 25 23 22 23 22 22 22 19 16
23 24 24 24 23 22 22 24 26 27 28 28 28 28 30 32 33 33 33 33 32 32 31 31 32 33 33 31 29 28 29 29 27 25 23 22 24 24 23 22 21 17
21 22 22 23 21 20 22 26 28 28 30 32 31 29 29 31 32 30 30 31 32 33 33 33 33 34 34 34 32 29 29 29 27 25 22 22 25 26 22 19 20 20
21 21 21 22 22 21 23 26 27 28 31 34 34 32 28 27 29 32 33 34 33 32 33 34 35 34 33 33 32 30 29 27 26 26 23 22 23 24 22 19 20 21
22 22 21 22 22 23 24 26 25 25 28 31 32 32 29 25 26 31 33 34 33 31 32 33 34 33 32 31 31 29 27 25 26 27 26 23 21 22 24 24 23 21
22 23 23 23 23 23 24 25 24 23 25 26 26 27 28 24 23 25 26 27 27 26 24 24 24 25 27 28 28 28 25 25 27 28 27 25 21 21 26 27 26 24
22 23 23 22 23 24 24 23 23 22 24 24 23 24 27 25 23 23 24 24 24 22 20 19 18 18 20 23 25 24 23 24 27 27 27 26 23 21 23 25 26 25
22 23 23 23 24 25 24 23 23 22 22 22 22 22 25 28 28 29 29 30 28 27 27 26 21 18 19 24 26 24 22 24 26 26 26 26 25 23 22 23 26 26
23 24 26 27 27 26 25 25 24 21 19 21 22 23 24 26 28 29 30 30 30 29 30 30 26 25 27 30 31 29 26 26 26 26 26 26 25 25 25 24 26 25
23 25 27 28 27 25 25 27 27 23 20 20 21 24 25 24 24 25 25 27 28 27 29 30 28 30 33 34 33 32 30 28 27 26 27 26 25 25 25 25 25 24
23 24 26 27 27 26 26 27 26 23 22 21 20 21 22 22 23 23 24 27 28 27 31 32 29 30 32 32 33 35 33 30 27 27 27 27 25 25 24 24 27 26
23 26 26 26 27 27 26 26 24 22 22 22 21 20 19 19 22 24 25 28 29 29 31 33 31 31 31 31 32 35 35 31 27 27 28 28 28 28 26 26 29 29
25 27 26 26 28 28 27 26 24 22 21 21 22 22 20 19 22 24 26 28 29 29 29 31 31 32 32 31 31 34 35 32 28 26 27 28 30 30 27 27 30 31
25 25 26 28 29 30 31 29 25 23 21 20 21 22 20 20 22 23 25 27 27 27 28 29 30 31 33 32 31 33 35 33 29 26 25 26 29 30 30 29 30 31
24 24 25 27 27 30 34 32 27 25 23 19 18 20 20 21 23 23 23 25 26 25 26 27 27 28 32 34 32 32 34 33 29 26 25 26 26 27 28 28 28 29
24 23 24 25 26 29 32 32 28 25 22 19 19 21 22 22 21 21 21 23 26 26 25 26 27 27 30 33 33 33 35 33 28 26 26 24 21 20 21 24 26 27
27 26 25 24 26 28 29 29 29 27 23 20 20 21 21 20 19 19 20 22 25 26 25 25 26 26 29 33 32 32 34 31 28 29 26 18 16 18 19 21 22 21
25 24 24 25 26 27 26 25 27 28 24 21 19 18 18 18 17 19 20 21 23 25 26 27 26 24 27 31 32 32 33 30 28 29 24 16 16 19 19 19 21 20
Wind_Direction
236 235 233 234 235 237 238 235 231 232 233 232 233 236 234 230 231 232 229 229 231 230 230 232 234 237 240 240 236 235 238 239 237 233 230 229 228 232 237 239 239 240
245 241 235 232 232 234 236 235 234 234 235 234 234 234 234 230 229 230 229 230 233 234 232 233 235 235 239 241 238 234 234 235 237 234 231 228 226 228 233 237 238 237
257 250 241 233 230 231 235 237 237 237 236 233 231 232 234 232 229 229 229 228 231 233 233 234 234 233 236 238 235 233 232 231 231 232 234 231 226 226 230 235 237 235
263 259 252 242 233 229 233 236 236 236 234 230 228 230 234 232 228 226 225 225 226 228 230 232 231 230 233 235 232 230 231 231 229 229 234 236 234 230 230 234 238 238
268 267 268 267 251 233 228 229 231 232 233 231 228 228 232 231 228 227 224 222 222 222 223 225 225 226 228 229 228 227 227 229 228 227 230 235 236 234 233 234 236 238
274 273 276 284 280 253 234 229 230 231 232 232 229 228 230 230 228 228 225 221 220 220 221 222 222 222 224 225 225 224 223 225 226 223 225 230 233 232 232 234 236 238
277 278 279 281 284 275 252 236 230 229 231 233 231 227 226 227 229 230 228 225 223 220 221 222 222 221 221 221 221 220 219 221 224 222 221 224 226 227 230 234 239 240
281 281 284 283 281 280 268 248 236 233 234 233 228 225 225 226 228 231 230 227 224 221 218 218 219 219 218 217 217 217 217 219 221 221 220 219 219 222 227 232 239 241
287 287 287 286 283 281 278 265 252 246 245 241 232 226 225 226 229 231 231 228 226 223 220 217 217 217 217 216 216 215 216 218 218 217 218 217 216 219 223 228 234 238
289 290 290 290 288 284 284 279 267 256 252 252 249 240 232 230 232 233 233 232 229 226 223 221 218 217 218 218 216 214 213 214 215 214 216 219 219 218 220 223 226 227
287 288 290 291 288 287 289 287 276 263 253 252 252 249 242 237 234 234 238 239 235 229 225 224 222 219 216 216 215 213 211 212 212 212 215 219 216 214 215 221 225 223
290 289 289 288 287 289 293 290 280 269 260 254 252 250 247 243 236 234 237 240 240 235 227 225 226 222 215 213 213 213 211 210 210 210 212 216 217 216 216 219 223 222
291 290 289 285 282 286 290 286 278 270 263 258 255 251 248 246 239 233 234 237 239 238 233 228 228 223 215 211 211 211 208 205 205 206 208 213 218 220 219 218 220 219
290 291 291 285 280 282 285 282 275 269 263 259 258 254 249 247 243 238 239 245 248 247 243 242 240 230 220 214 213 209 205 204 205 204 207 213 214 214 219 220 220 219
289 291 291 287 283 282 282 279 274 271 267 262 259 255 250 247 245 241 240 249 261 263 257 258 264 252 231 220 214 206 202 205 207 206 209 212 209 206 214 219 222 223
289 291 291 286 284 282 280 278 278 278 275 267 258 255 255 253 249 244 240 241 249 252 247 245 251 251 237 225 216 207 203 205 205 205 208 208 204 201 204 208 213 218
290 292 290 285 282 281 278 276 275 274 270 265 258 256 259 260 253 246 243 242 242 244 240 233 229 229 224 221 218 212 208 207 203 202 204 203 200 201 206 205 203 207
293 294 292 287 284 282 279 279 277 270 259 248 245 252 258 259 253 244 239 240 240 241 239 232 226 224 220 217 218 215 212 210 205 202 203 203 200 202 208 210 206 205
296 297 295 288 284 282 282 282 280 273 261 244 236 245 254 253 250 246 239 236 233 232 232 230 227 225 221 219 220 218 213 209 205 203 204 204 203 200 202 206 210 209
296 296 293 288 284 284 282 279 272 266 262 253 243 241 241 240 244 246 241 235 231 229 229 227 224 220 218 218 221 219 213 208 205 205 206 207 205 201 197 200 206 208
294 297 297 294 289 287 283 276 269 262 256 250 247 243 235 231 237 240 240 237 233 230 230 229 226 221 217 218 219 218 214 208 203 202 204 207 207 201 195 199 206 206
295 299 299 297 295 292 286 278 271 266 258 247 245 247 241 234 232 231 234 239 237 230 229 231 230 226 222 218 217 216 213 205 200 200 200 201 202 199 198 202 205 203
302 301 296 292 289 287 284 279 274 271 266 255 243 241 239 236 233 227 227 236 240 236 232 231 231 227 222 218 215 213 209 203 200 201 198 196 198 199 200 203 204 204
303 299 292 286 280 277 277 278 278 274 269 261 248 241 237 235 232 229 228 231 236 237 235 233 231 226 219 215 213 211 207 202 199 199 198 198 200 202 205 207 208 209
304 299 293 286 279 275 275 276 277 274 269 262 256 249 242 238 232 229 230 229 229 232 234 235 235 231 222 216 213 212 209 203 200 202 201 196 195 201 208 210 208 207
306 302 297 291 283 279 279 277 277 275 269 261 259 253 244 239 231 224 225 228 229 231 232 232 233 234 229 223 219 216 211 205 202 202 196 182 178 188 195 199 201 203